Zurück zum Katalog

STARLINK-3543

AktivKommunikationVLEO
NORAD 51716·PAYLOAD·🇺🇸 United States

Gestartet Feb 21, 2022 von Cape Canaveral Space Force Station

Loading…

Nächste Überflüge (nächste 24 Stunden)

TLE

AktuellSource: CelesTrak SupGP

Epoche: Sep 14, 2026, 14:42 UTC

1 51716C 22016C   26257.61298611  .00024993  00000+0  75862-3 0  2571
2 51716  53.1596 191.5199 0001317  92.5478 245.7859 15.33527249    15

Verfolge STARLINK-3543 in Echtzeit mit AllMySat

Download on the App Store